Tracking 18843 objects as of 20-November-2017
HD Live streaming from Space Station
objects crossing your sky now

FENGYUN 1C DEB

Track FENGYUN 1C DEB now!
10-day predictions


NORAD ID: 31381
Int'l Code: 1999-025BSM
Perigee: 643.9 km
Apogee: 960.9 km
Inclination: 98.7 °
Period: 100.8 minutes
Semi major axis: 7173 km
RCS: 0.0148 m2 (small)
Launch date: May 10, 1999
Source: People's Republic of China (PRC)
Launch site: Taiyaun Space Center, China (TSC)

Note: This is SATELLITE DEBRIS
aabbcc
Your satellite tracking list
Your tracking list is empty




NASA's NSSDC Master Catalog

Two Line Element Set (TLE):
1 31381U 99025BSM 17323.45841881  .00000319  00000-0  11185-3 0  9998
2 31381  98.6517  43.7999 0220934  71.5445 290.9613 14.28942149554504
Source of the keplerian elements: AFSPC